Change the Weather History Date:

Saturday, November 16, 2013

  Actual Average Record
Temperature  
Mean Temperature 40 °F -  
Max Temperature 50 °F 48 °F 60 °F (1997)
Min Temperature 30 °F 35 °F 24 °F (1996)
Degree Days  
Heating Degree Days 25    
Moisture  
Dew Point 37 °F    
Average Humidity 88    
Maximum Humidity 100    
Minimum Humidity 71    
Precipitation  
Precipitation 0.00 in 0.10 in - ()
Sea Level Pressure  
Sea Level Pressure 30.46 in    
Wind  
Wind Speed 2 mph ()    
Max Wind Speed 8 mph    
Max Gust Speed -    
Visibility 4.9 miles    
Events      
Averages and records for this station are not official NWS values.
T = Trace of Precipitation, MM = Missing Value Source: Averaged Metar Reports

Daily Weather History Graph

Daily Weather History Graph

Search for Another Location

Airport or City:

Trip Planner

Search our weather history database for the weather conditions in past years. The results will help you decide how hot, cold, wet, or windy it might be!

Date:

Astronomy

Nov. 16, 2013 Rise Set
Actual Time 7:19 AM GMT 4:11 PM GMT
Civil Twilight 6:42 AM GMT 4:47 PM GMT
Nautical Twilight 6:02 AM GMT 5:28 PM GMT
Astronomical Twilight 5:22 AM GMT 6:07 PM GMT
Moon 3:42 PM GMT (11/16) 5:53 AM GMT (11/16)
Length of Visible Light 10h 05m
Length of Day
8h 51m
Waxing Gibbous, 99% of the Moon is Illuminated
Nov 16
Waxing Gibbous
Nov 17
Full
Nov 25
Last Quarter
Dec 3
New
Dec 9
First Quarter

Hourly Weather History & Observations

Time (GMT) Temp. Windchill Dew Point Humidity Pressure Visibility Wind Dir Wind Speed Gust Speed Precip Events Conditions
12:20 AM 33.8 °F - 33.8 °F 100% 30.54 in 3.7 mi Calm Calm - N/A   Unknown
12:50 AM 33.8 °F - 32.0 °F 93% 30.51 in 5.0 mi Calm Calm - N/A   Unknown
1:20 AM 33.8 °F - 32.0 °F 93% 30.51 in 3.7 mi Calm Calm - N/A   Unknown
1:50 AM 32.0 °F - 32.0 °F 100% 30.51 in 4.3 mi Calm Calm - N/A   Unknown
2:20 AM 32.0 °F - 32.0 °F 100% 30.51 in 4.3 mi Calm Calm - N/A   Unknown
2:50 AM 32.0 °F - 32.0 °F 100% 30.51 in 3.7 mi Calm Calm - N/A   Unknown
3:20 AM 32.0 °F - 30.2 °F 93% 30.51 in 3.1 mi Calm Calm - N/A   Mist
3:50 AM 32.0 °F - 30.2 °F 93% 30.51 in 3.1 mi Calm Calm - N/A   Haze
4:20 AM 32.0 °F - 30.2 °F 93% 30.51 in 3.1 mi Calm Calm - N/A   Haze
4:50 AM 32.0 °F - 30.2 °F 93% 30.48 in 3.7 mi Calm Calm - N/A   Unknown
5:20 AM 30.2 °F - 30.2 °F 100% 30.48 in 3.1 mi Calm Calm - N/A   Mist
5:50 AM 30.2 °F - 30.2 °F 100% 30.48 in 3.1 mi Calm Calm - N/A   Mist
6:20 AM 30.2 °F - 30.2 °F 100% 30.48 in 4.3 mi SSW 2.3 mph - N/A   Unknown
6:50 AM 30.2 °F - 30.2 °F 100% 30.48 in - Variable 2.3 mph - N/A   Clear
7:20 AM 30.2 °F - 30.2 °F 100% 30.51 in 4.3 mi Calm Calm - N/A   Unknown
7:50 AM 30.2 °F - 30.2 °F 100% 30.51 in 5.6 mi Calm Calm - N/A   Unknown
8:20 AM 32.0 °F - 30.2 °F 93% 30.51 in 5.6 mi Calm Calm - N/A   Unknown
8:50 AM 33.8 °F - 33.8 °F 100% 30.51 in 5.6 mi Calm Calm - N/A   Unknown
9:20 AM 37.4 °F - 33.8 °F 87% 30.51 in - Calm Calm - N/A   Clear
9:50 AM 41.0 °F - 35.6 °F 81% 30.51 in - Calm Calm - N/A   Clear
10:20 AM 42.8 °F - 37.4 °F 81% 30.51 in - Calm Calm - N/A   Clear
10:50 AM 44.6 °F - 37.4 °F 76% 30.51 in - Variable 2.3 mph - N/A   Clear
11:20 AM 46.4 °F 45.2 °F 41.0 °F 81% 30.48 in - Variable 3.5 mph - N/A   Clear
11:50 AM 48.2 °F - 41.0 °F 76% 30.48 in - Variable 3.5 mph - N/A   Clear
12:20 PM 50.0 °F - 41.0 °F 71% 30.45 in - Variable 2.3 mph - N/A   Clear
12:50 PM 50.0 °F - 41.0 °F 71% 30.45 in 6.2 mi WNW 4.6 mph - N/A   Partly Cloudy
1:20 PM 50.0 °F - 41.0 °F 71% 30.45 in 6.2 mi WNW 5.8 mph - N/A   Partly Cloudy
1:50 PM 50.0 °F - 41.0 °F 71% 30.45 in 6.2 mi NW 8.1 mph - N/A   Partly Cloudy
2:20 PM 48.2 °F - 41.0 °F 76% 30.45 in 6.2 mi NW 8.1 mph - N/A   Partly Cloudy
2:50 PM 48.2 °F - 41.0 °F 76% 30.42 in 6.2 mi NW 8.1 mph - N/A   Scattered Clouds
3:20 PM 46.4 °F 42.9 °F 41.0 °F 81% 30.42 in 6.2 mi NW 6.9 mph - N/A   Scattered Clouds
3:50 PM 46.4 °F 42.9 °F 41.0 °F 81% 30.42 in 6.2 mi NW 6.9 mph - N/A   Partly Cloudy
4:20 PM 44.6 °F 41.4 °F 39.2 °F 81% 30.42 in 6.2 mi WNW 5.8 mph - N/A   Partly Cloudy
4:50 PM 44.6 °F 41.4 °F 41.0 °F 87% 30.42 in 6.2 mi NW 5.8 mph - N/A   Partly Cloudy
5:20 PM 44.6 °F 42.2 °F 41.0 °F 87% 30.42 in 6.2 mi NW 4.6 mph - N/A   Mostly Cloudy
5:50 PM 44.6 °F 43.1 °F 41.0 °F 87% 30.42 in 6.2 mi Variable 3.5 mph - N/A   Mostly Cloudy
6:20 PM 46.4 °F 45.2 °F 41.0 °F 81% 30.42 in 6.2 mi NW 3.5 mph - N/A   Mostly Cloudy
6:50 PM 46.4 °F 45.2 °F 41.0 °F 81% 30.42 in 6.2 mi Variable 3.5 mph - N/A   Mostly Cloudy
7:20 PM 46.4 °F 45.2 °F 41.0 °F 81% 30.42 in 6.2 mi Variable 3.5 mph - N/A   Mostly Cloudy
7:50 PM 44.6 °F 43.1 °F 41.0 °F 87% 30.39 in 6.2 mi Variable 3.5 mph - N/A   Mostly Cloudy
8:20 PM 46.4 °F 45.2 °F 42.8 °F 87% 30.39 in 5.6 mi Variable 3.5 mph - N/A   Mostly Cloudy
8:50 PM 44.6 °F 43.1 °F 42.8 °F 93% 30.39 in 5.0 mi NW 3.5 mph - N/A   Mostly Cloudy
9:20 PM 44.6 °F 43.1 °F 42.8 °F 93% 30.39 in 4.3 mi Variable 3.5 mph - N/A   Mostly Cloudy
9:50 PM 44.6 °F 43.1 °F 42.8 °F 93% 30.39 in 3.7 mi NW 3.5 mph - N/A   Mostly Cloudy
10:20 PM 44.6 °F 42.2 °F 42.8 °F 93% 30.39 in 3.7 mi NNW 4.6 mph - N/A   Mostly Cloudy
10:50 PM 44.6 °F 42.2 °F 42.8 °F 93% 30.39 in 3.1 mi North 4.6 mph - N/A   Haze
11:20 PM 44.6 °F 43.1 °F 42.8 °F 93% 30.39 in 3.7 mi NNE 3.5 mph - N/A   Mostly Cloudy
11:50 PM 44.6 °F 43.1 °F 42.8 °F 93% 30.36 in 3.7 mi NNE 3.5 mph - N/A   Mostly Cloudy